Weather Service Report


771 
ASUS41 KBTV 221310
RWRBTV
VERMONT REGIONAL WEATHER ROUNDUP
NATIONAL WEATHER SERVICE BURLINGTON VT
900 AM EDT WED OCT 22 2014

NOTE: "FAIR" INDICATES FEW OR NO CLOUDS BELOW 12,000 FEET WITH NO 
SIGNIFICANT WEATHER AND/OR OBSTRUCTIONS TO VISIBILITY.

* THESE REPORTS ARE NOT UNDER NWS QUALITY CONTROL AND/OR DO NOT
  REPORT WEATHER SUCH AS PRECIPITATION AND FOG.

VTZ001>019-221400-
_____VERMONT_____

  
CITY           SKY/WX    TMP DP  RH WIND       PRES   REMARKS
BURLINGTON     CLOUDY    47  44  90 N8        30.19R                  
MONTPELIER     CLOUDY    45  44  97 N5        30.19R                  
MORRISVILLE    CLOUDY    46  43  89 N5        30.20R                  
ST. JOHNSBURY*   N/A     49  46  90 MISG      30.16R                  
LYNDONVILLE*   CLOUDY    47  41  79 N13G18    30.19R                  
MIDDLEBURY*    CLOUDY    47  47 100 N9        30.15R                  
RUTLAND*       CLOUDY    46  45  93 NW5       30.12R                  
SPRINGFIELD    CLOUDY    48  45  89 N6        30.13R FOG              
HIGHGATE*      DRIZZLE   43  42  97 N7        30.21R                  
NEWPORT*       RAIN      41  41  99 N10       30.22R                  
BENNINGTON     CLOUDY    52  44  74 VRB3      30.06R                  

_____LAKE CHAMPLAIN_____

  
CITY           SKY/WX    TMP DP  RH WIND       PRES   REMARKS
COLCHESTER RF*   N/A     46  45  93 N23         N/A                   
DIAMOND ISL*     N/A     46  43  87 NW21        N/A                   

$$

NYZ007-026>031-035-052-083-221400-
_____NORTHERN NEW YORK_____

  
CITY           SKY/WX    TMP DP  RH WIND       PRES   REMARKS
PLATTSBURGH    CLOUDY    44  40  85 N17       30.21R                  
SARANAC LAKE   CLOUDY    40  40 100 NE8       30.15R                  
MASSENA        CLOUDY    46  35  65 NE12      30.25R                  
OGDENSBURG*    PTSUNNY   46  37  71 NE9       30.23R                  
POTSDAM*       CLOUDY    45  39  81 E13G21    30.22S                  
WATERTOWN      CLOUDY    46  36  68 NE13      30.20R                  
FT DRUM        CLOUDY    43  39  86 NE10      30.18R                  
ALBANY         CLOUDY    50  45  83 N14       30.08R                  
GLENS FALLS    CLOUDY    50  44  80 N6        30.12R                  

$$
NHZ002-005-011-221400-
_____NEW HAMPSHIRE_____

  
CITY           SKY/WX    TMP DP  RH WIND       PRES   REMARKS
LEBANON        CLOUDY    49  44  83 N3        30.13R                  
KEENE          CLOUDY    50  39  66 NE12G17   30.08S                  
MT WASHINGTON  FRZ RAIN  30  30 100 E44G58      N/A  VSB 0   WCI  13  
PLYMOUTH       CLOUDY    48  48 100 CALM      30.14R                  
WHITEFIELD     CLOUDY    48  43  82 E12       30.17R                  

$$

_____REGIONAL QUEBEC LOCATIONS_____

  
CITY           SKY/WX    TMP DP  RH WIND       PRES   REMARKS
MONTREAL       LGT RAIN  43  37  81 N18G25    30.28R                  
QUEBEC CITY    PTSUNNY   43  34  70 E14G22    30.37R                  
SHERBROOKE     LGT RAIN  39  39 100 NE13G18   30.25R                  

_____REGIONAL ONTARIO LOCATIONS_____

  
CITY           SKY/WX    TMP DP  RH WIND       PRES   REMARKS
OTTAWA         PTSUNNY   43  34  70 N10       30.28R                  

______KEY______
VSB  - VISIBILITY IN MILES
WCI  - WIND CHILL INDEX
HX   - HEAT INDEX
$$
NNNN

Return to Home page


Western Regional Climate Center, wrcc@dri.edu